Weather History for Sheridan, WY

Change the Weather History Date:

Tuesday, March 11, 2014

  Actual Average Record
Temperature  
Mean Temperature 26 °F 34 °F  
Max Temperature 36 °F 47 °F 72 °F (2005)
Min Temperature 16 °F 21 °F -21 °F (1932)
Degree Days  
Heating Degree Days 39 31  
Month to date heating degree days 396 363  
Since 1 July heating degree days 6146 5898  
Cooling Degree Days 0 0  
Month to date cooling degree days 0 0  
Year to date cooling degree days 0 0  
Moisture  
Dew Point 25 °F    
Average Humidity 75    
Maximum Humidity 100    
Minimum Humidity 50    
Precipitation  
Precipitation 0.35 in 0.03 in 0.35 in (2014)
Month to date precipitation 0.69 0.28  
Year to date precipitation 2.54 1.38  
Sea Level Pressure  
Sea Level Pressure 30.19 in    
Wind  
Wind Speed 13 mph (NW)    
Max Wind Speed 24 mph    
Max Gust Speed 29 mph    
Visibility 6 miles    
Events Fog , Snow    
T = Trace of Precipitation, MM = Missing Value Source: NWS Daily Summary

Daily Weather History Graph

Daily Weather History Graph

Search for Another Location

Airport:

Trip Planner

Search our weather history database for the weather conditions in past years. The results will help you decide how hot, cold, wet, or windy it might be!

Date:

Astronomy

Mar. 11, 2014 Rise Set
Actual Time 7:27 AM MDT 7:08 PM MDT
Civil Twilight 6:58 AM MDT 7:38 PM MDT
Nautical Twilight 6:24 AM MDT 8:11 PM MDT
Astronomical Twilight 5:50 AM MDT 8:46 PM MDT
Moon 2:39 PM MDT (3/11) 4:32 AM MDT (3/11)
Length of Visible Light 12h 39m
Length of Day
11h 41m
Waxing Gibbous, 78% of the Moon is Illuminated
Mar 11
Waxing Gibbous
Mar 16
Full
Mar 23
Last Quarter
Mar 30
New
Apr 7
First Quarter

Hourly Weather History & Observations

Time (MDT) Temp. Windchill Dew Point Humidity Pressure Visibility Wind Dir Wind Speed Gust Speed Precip Events Conditions
12:53 AM 32.0 °F 22.5 °F 30.9 °F 96% 29.88 in 1.0 mi NW 12.7 mph - 0.05 in Snow Light Snow
1:45 AM 32.0 °F 21.6 °F 30.0 °F 92% 29.89 in 0.8 mi NW 15.0 mph - 0.08 in Snow Light Snow
1:53 AM 32.0 °F 21.2 °F 30.0 °F 92% 29.94 in 0.8 mi NW 16.1 mph - 0.10 in Snow Light Snow
2:19 AM 32.0 °F 22.1 °F 30.0 °F 92% 29.92 in 0.5 mi NNW 13.8 mph - 0.07 in Fog , Snow Snow
2:27 AM 32.0 °F 21.6 °F 30.0 °F 92% 29.93 in 0.8 mi NW 15.0 mph - 0.08 in Snow Light Snow
2:53 AM 32.0 °F 22.5 °F 30.0 °F 92% 29.99 in 1.5 mi NW 12.7 mph - 0.11 in Snow Light Snow
3:09 AM 32.0 °F 22.1 °F 30.0 °F 92% 29.96 in 1.5 mi WNW 13.8 mph - 0.01 in Snow Light Snow
3:48 AM 30.2 °F - 30.2 °F 100% 29.98 in - North - - 0.04 in   Unknown
3:53 AM 30.9 °F - 30.0 °F 96% 30.02 in - North - - 0.04 in   Unknown
4:46 AM 30.9 °F 20.2 °F 30.0 °F 96% 30.01 in 1.8 mi NW 15.0 mph - 0.02 in Snow Light Snow
4:53 AM 30.9 °F 21.2 °F 30.0 °F 96% 30.06 in 1.5 mi NW 12.7 mph - 0.03 in Snow Light Snow
5:07 AM 30.9 °F 21.7 °F 30.0 °F 96% 30.02 in 1.2 mi NW 11.5 mph - 0.01 in Snow Light Snow
5:14 AM 30.9 °F 21.7 °F 30.0 °F 96% 30.02 in 1.2 mi NW 11.5 mph - 0.01 in Snow Light Snow
5:42 AM 30.9 °F 22.2 °F 30.0 °F 96% 30.04 in 0.8 mi NW 10.4 mph - 0.03 in Snow Light Snow
5:53 AM 30.9 °F 22.2 °F 30.0 °F 96% 30.11 in 0.8 mi NW 10.4 mph - 0.05 in Snow Light Snow
6:19 AM 30.9 °F 18.7 °F 28.9 °F 92% 30.07 in 1.8 mi NNW 19.6 mph 29.9 mph 0.02 in Snow Light Snow
6:22 AM 30.9 °F 19.4 °F 28.9 °F 92% 30.07 in 2.0 mi NNW 17.3 mph - 0.03 in Snow Light Snow
6:28 AM 30.9 °F 19.4 °F 28.9 °F 92% 30.08 in 2.5 mi NNW 17.3 mph - 0.03 in Snow Light Snow
6:53 AM 30.9 °F 19.8 °F 28.9 °F 92% 30.17 in 3.0 mi NW 16.1 mph - 0.03 in   Overcast
7:04 AM 30.9 °F 19.8 °F 28.9 °F 92% 30.11 in 10.0 mi WNW 16.1 mph - N/A   Overcast
7:53 AM 30.9 °F 19.8 °F 28.0 °F 89% 30.22 in 10.0 mi WNW 16.1 mph - N/A   Overcast
8:53 AM 30.9 °F 18.7 °F 26.1 °F 82% 30.27 in 10.0 mi NW 19.6 mph - N/A   Mostly Cloudy
9:53 AM 32.0 °F 19.5 °F 27.0 °F 82% 30.31 in 10.0 mi WNW 21.9 mph - N/A   Mostly Cloudy
10:53 AM 33.1 °F 20.9 °F 27.0 °F 78% 30.35 in 10.0 mi NW 21.9 mph - N/A   Mostly Cloudy
11:53 AM 34.0 °F 23.8 °F 26.1 °F 73% 30.40 in 10.0 mi WNW 16.1 mph - N/A   Clear
12:53 PM 35.1 °F 24.5 °F 24.1 °F 64% 30.41 in 10.0 mi NW 18.4 mph - N/A   Clear
1:53 PM 36.0 °F 26.7 °F 21.9 °F 57% 30.41 in 10.0 mi WNW 15.0 mph - N/A   Clear
2:53 PM 36.0 °F 26.0 °F 23.0 °F 59% 30.40 in 10.0 mi WNW 17.3 mph - N/A   Clear
3:53 PM 36.0 °F 26.3 °F 21.9 °F 57% 30.39 in 10.0 mi WNW 16.1 mph - N/A   Clear
4:53 PM 36.0 °F 26.0 °F 21.9 °F 57% 30.38 in 10.0 mi WNW 17.3 mph - N/A   Clear
5:53 PM 35.1 °F 26.4 °F 21.0 °F 57% 30.39 in 10.0 mi NW 12.7 mph - N/A   Clear
6:53 PM 30.9 °F 22.2 °F 19.0 °F 61% 30.40 in 10.0 mi West 10.4 mph - N/A   Clear
7:53 PM 27.0 °F 16.1 °F 17.1 °F 66% 30.41 in 10.0 mi West 12.7 mph - N/A   Clear
8:53 PM 21.9 °F 14.5 °F 14.0 °F 72% 30.43 in 10.0 mi South 5.8 mph - N/A   Clear
9:53 PM 23.0 °F 17.0 °F 12.0 °F 63% 30.42 in 10.0 mi South 4.6 mph - N/A   Clear
10:53 PM 16.0 °F 10.4 °F 8.1 °F 71% 30.42 in 10.0 mi SSW 3.5 mph - N/A   Clear
11:53 PM 24.1 °F 17.0 °F 9.0 °F 53% 30.38 in 10.0 mi South 5.8 mph - N/A   Clear